RH
29 35 40 46 44 35 40 47 44 39 37 51 67 62 69 81 74 76 65 46 51 52 53 61 68 69 67 64 53 44 44 42 48 58 61 66 71 73 71 68 73 88 94 84 76 64 45 26 17 18 19 26 35 36 38 41 40 35 31 28 23 17 14 12 12 17 15 13 15 16 19 19 20 20 20 21 21 22 22 22 21 21 21 19 19 18 22 36 66 96 94 88 89 80 81 82 83
25 27 33 46 50 43 44 43 37 31 40 62 59 43 55 67 68 86 77 50 50 52 50 53 60 65 63 54 43 43 48 50 53 61 69 74 76 74 70 72 79 81 74 65 54 35 21 19 19 20 24 31 36 39 46 50 45 35 29 24 17 11 9 13 18 16 13 15 14 15 18 19 20 21 22 23 23 24 23 24 24 23 20 17 15 15 16 21 51 96 104 97 99 93 91 90 91
22 22 25 36 44 43 41 36 31 31 44 55 45 36 39 46 57 74 70 55 52 49 50 53 63 69 57 46 46 58 64 62 65 72 83 87 78 64 60 63 63 58 54 47 31 17 15 20 22 24 29 35 40 45 49 47 41 31 24 16 8 8 14 19 17 14 16 15 14 18 22 26 29 31 32 31 31 30 30 32 32 29 23 18 15 15 16 17 33 76 101 101 100 98 98 96 100
22 20 21 26 33 35 36 33 31 35 48 46 38 43 41 43 45 47 51 51 48 46 51 57 70 67 50 57 72 81 82 76 82 94 101 88 62 48 47 50 51 48 44 34 19 14 19 23 25 30 35 39 43 44 41 37 32 25 16 8 7 14 20 18 15 17 16 15 17 23 30 36 37 36 34 32 32 32 36 38 34 26 20 19 18 17 18 18 19 38 72 96 103 100 100 99 98
23 21 19 21 27 31 31 31 31 33 48 56 57 58 50 47 42 37 52 64 65 59 56 62 76 70 63 86 94 95 98 95 100 105 92 61 37 35 37 46 52 45 38 26 15 16 22 25 27 31 37 40 40 38 34 30 25 17 7 6 14 21 20 16 17 18 16 17 21 28 37 38 36 33 30 28 28 31 38 37 28 21 20 19 18 19 18 20 20 21 40 74 100 102 98 99 96
23 23 21 19 23 28 29 28 30 29 38 51 61 69 64 56 49 47 65 80 86 89 83 77 79 66 58 70 74 85 100 101 103 93 63 33 27 30 34 52 56 42 31 19 14 17 22 24 25 32 37 38 37 34 30 25 18 8 5 13 22 22 18 19 19 18 17 19 22 32 36 34 32 30 29 27 26 34 38 30 22 20 20 19 18 19 19 20 22 23 28 47 80 100 100 100 101
23 23 22 20 20 24 27 26 27 28 40 50 47 53 57 52 47 45 53 53 55 78 94 88 76 53 37 42 62 91 104 101 93 75 50 29 26 29 42 62 56 39 27 16 15 18 19 20 25 35 38 35 32 29 25 18 9 5 12 21 24 22 21 21 19 19 19 20 26 34 34 32 30 28 29 26 30 39 33 22 20 19 17 17 18 18 20 22 25 29 30 31 46 80 101 100 99
24 23 23 23 22 23 25 25 26 26 43 58 49 45 47 46 45 42 43 38 35 56 78 81 67 44 32 34 54 79 83 73 60 50 42 27 24 33 51 63 53 40 27 15 17 18 16 20 27 33 32 29 26 24 18 9 6 11 20 24 25 25 24 22 20 21 20 22 30 34 33 30 28 29 28 27 37 37 24 20 19 17 17 16 18 21 23 21 23 30 40 42 41 64 92 97 97
25 24 25 26 25 25 24 24 27 28 36 45 43 42 43 46 51 47 43 38 36 48 64 65 50 35 32 30 32 40 39 35 31 31 30 22 26 41 52 53 47 44 31 16 17 17 15 19 24 24 22 23 23 18 9 5 11 18 22 25 29 29 26 23 22 23 21 24 32 34 32 29 29 29 27 33 40 29 20 22 20 17 17 17 19 22 22 23 25 31 43 55 59 65 77 85 87
26 26 25 27 27 26 25 24 25 29 32 33 33 34 39 49 53 47 40 36 34 37 43 41 34 29 29 28 26 25 25 25 25 25 22 20 31 49 55 45 44 49 36 18 16 15 14 18 16 14 18 22 19 10 5 9 17 20 22 29 33 29 24 23 23 24 23 26 33 34 31 30 29 29 33 41 36 22 21 24 23 20 17 18 20 21 23 29 33 36 43 54 66 71 73 74 72
24 25 26 26 28 27 27 27 27 28 30 31 33 35 39 44 44 39 35 34 32 31 31 30 29 28 27 27 26 25 24 23 22 21 18 21 35 52 58 50 50 54 39 22 17 13 14 14 10 13 19 18 11 5 9 15 18 21 27 31 30 24 22 22 24 25 24 29 34 33 31 29 29 34 41 40 27 19 23 26 27 24 20 20 20 21 24 29 31 31 33 40 50 60 66 64 60
23 24 25 25 27 28 29 29 31 31 31 32 33 36 38 37 36 35 33 32 31 31 30 29 27 26 26 25 24 23 21 20 17 16 16 22 37 52 62 62 60 56 40 26 17 12 13 10 9 15 15 11 6 8 13 16 19 24 28 27 23 21 22 24 26 25 26 32 35 33 30 26 27 33 34 29 22 20 24 27 30 29 27 25 22 23 24 25 27 26 27 28 30 34 38 39 39
21 23 23 25 26 27 29 29 30 31 31 33 34 35 35 35 34 32 32 31 30 29 28 27 26 25 25 23 21 19 17 16 14 13 16 26 44 59 67 67 61 54 41 27 17 12 10 8 11 12 9 7 8 12 15 17 20 23 23 22 21 23 25 27 27 26 29 34 35 31 26 23 24 24 22 22 22 22 25 29 32 33 33 32 30 28 27 27 26 26 26 26 26 27 27 28 30
17 19 21 24 25 26 27 26 27 29 29 31 32 32 32 31 31 30 29 28 27 26 25 24 23 22 23 22 18 16 15 13 12 12 20 38 56 62 62 61 55 49 38 24 15 11 8 8 10 8 7 8 11 15 17 18 20 20 21 22 24 25 27 27 26 26 31 35 33 27 23 23 24 19 17 22 23 23 27 31 33 35 36 35 35 34 33 32 30 30 28 27 26 25 25 26 28
13 16 17 20 22 25 26 25 26 26 26 27 27 27 27 27 26 26 25 24 23 22 21 21 20 20 20 18 15 14 12 10 11 15 32 54 64 60 56 52 48 42 32 20 13 9 8 8 8 7 9 11 14 17 17 18 19 21 23 24 25 25 26 26 26 28 32 34 29 23 24 25 23 17 17 22 23 25 30 33 35 37 38 38 39 38 37 36 34 33 31 30 28 26 25 24 25
9 11 13 16 18 20 22 23 24 24 24 24 23 23 22 22 21 21 20 19 19 18 18 18 17 17 16 15 14 12 10 11 16 30 51 66 67 60 53 47 42 35 25 16 11 8 7 7 7 9 11 13 17 18 18 19 21 23 24 25 25 25 27 28 29 32 34 31 25 23 25 26 20 15 17 24 24 26 32 34 37 38 39 41 41 42 41 40 38 36 34 31 30 29 29 28 27
9 9 9 11 13 15 17 18 19 21 21 21 21 20 19 19 18 17 17 17 16 16 15 15 14 14 14 12 11 9 10 16 30 52 70 73 68 60 50 42 34 27 20 14 9 7 7 8 9 10 12 16 18 18 19 21 23 25 26 27 28 29 30 31 33 34 32 27 25 25 25 23 17 15 19 24 26 28 33 35 37 39 40 41 42 44 44 44 44 42 40 36 33 32 31 33 32
13 12 11 10 10 11 12 13 14 15 17 18 17 17 17 16 15 15 14 14 14 13 13 13 13 12 11 10 10 10 14 25 44 68 80 76 69 58 46 35 26 21 18 12 7 6 7 9 10 11 14 18 18 18 21 23 25 27 30 32 32 33 32 34 34 32 29 26 26 26 24 20 15 18 22 24 27 29 32 35 36 38 38 40 41 43 46 47 48 48 47 45 40 34 31 31 33
20 16 15 15 14 12 10 11 12 13 12 12 12 12 12 12 11 11 11 11 11 12 11 11 10 10 10 9 10 11 18 33 53 73 82 77 68 55 40 29 21 19 16 9 6 7 9 10 11 12 17 19 18 20 23 26 30 33 34 34 32 32 32 32 31 31 29 26 26 25 22 16 13 21 24 24 27 30 32 32 33 35 35 37 38 41 45 47 49 51 51 51 49 43 35 28 29
24 23 20 18 18 18 17 14 12 11 10 10 10 10 10 10 9 9 10 10 10 10 10 10 10 9 8 9 13 21 34 52 68 81 84 77 65 50 35 24 19 20 15 6 6 9 10 11 11 15 19 18 19 22 27 31 34 35 34 31 30 30 30 30 30 30 28 26 26 23 18 13 12 20 25 24 24 27 29 28 30 31 31 32 34 37 41 46 51 53 51 52 53 51 47 38 31
15 21 24 22 18 17 18 19 16 12 11 10 10 11 10 9 9 11 11 9 9 9 8 8 8 8 12 19 32 49 67 83 93 93 89 78 61 45 30 21 19 19 11 4 7 10 11 11 13 18 19 18 22 26 28 30 30 31 31 29 30 30 29 30 29 28 26 26 24 19 15 13 14 17 23 25 21 22 27 30 32 32 33 31 31 32 36 41 46 55 64 68 64 61 59 51 42
10 12 17 23 23 18 14 14 14 14 12 11 10 11 10 10 10 10 9 8 9 9 11 13 17 23 32 42 57 74 86 96 101 97 90 78 58 40 26 19 21 17 6 4 9 11 12 12 15 19 19 20 24 25 25 25 26 29 30 30 29 28 29 29 27 26 26 25 20 15 13 15 20 20 21 23 23 26 31 34 33 35 36 34 32 32 36 36 46 70 85 83 76 73 68 58 53
12 11 10 15 21 22 19 15 13 11 9 9 9 9 9 11 12 12 12 13 14 14 14 15 18 24 31 39 52 66 72 74 77 78 79 73 55 35 22 21 21 12 4 6 10 11 12 14 18 19 19 21 22 22 22 23 26 27 27 27 26 26 28 29 26 26 25 21 15 13 14 17 24 27 24 24 25 27 28 27 25 32 40 44 42 40 42 40 52 74 78 73 66 65 70 64 61
11 13 12 11 13 17 21 22 20 17 14 13 14 14 16 17 16 16 16 14 13 10 8 9 9 10 13 19 37 56 61 59 63 68 71 64 46 29 22 23 18 7 5 8 11 12 13 17 19 18 20 21 20 20 21 22 22 22 23 24 26 28 29 27 26 25 22 17 13 13 14 15 19 21 21 20 19 18 18 18 18 25 35 47 52 51 53 49 62 80 83 84 73 69 80 73 66
11 11 12 13 13 13 15 17 19 18 18 17 16 15 15 15 13 13 12 10 10 8 7 8 7 7 8 15 44 69 67 65 71 74 67 51 35 25 24 23 12 6 8 10 12 13 14 19 19 18 21 20 19 19 19 19 19 20 22 24 27 28 28 26 25 24 20 15 14 16 16 16 16 15 16 15 16 16 17 21 22 26 31 41 49 53 59 65 85 100 100 97 77 70 83 76 71
13 12 12 13 14 14 14 13 13 13 13 13 12 11 11 10 10 10 10 10 11 9 8 8 7 8 9 21 53 70 62 63 75 74 58 40 29 25 27 21 8 8 11 11 13 14 16 20 19 18 21 18 18 19 18 19 19 20 23 24 26 27 27 24 23 21 17 16 17 20 21 20 19 18 19 19 19 19 19 22 24 29 34 39 44 51 58 66 81 84 77 75 56 40 46 49 55
15 13 12 13 14 15 15 14 13 13 13 13 12 12 11 11 11 11 10 11 11 10 9 9 9 10 14 31 57 64 57 64 72 63 45 33 29 29 27 15 8 12 13 13 14 14 17 20 19 19 19 17 18 18 17 18 19 21 23 23 25 25 24 22 22 20 17 19 21 23 23 22 22 21 22 22 22 22 21 22 22 23 26 29 33 37 40 42 47 45 38 40 32 20 19 22 27
17 16 14 13 13 15 16 16 16 15 15 14 13 13 13 12 12 11 11 12 11 10 9 10 11 15 24 41 60 62 56 59 57 48 38 32 33 34 25 12 12 17 14 15 14 14 19 19 19 20 18 17 17 17 17 18 19 21 22 23 24 23 23 22 21 20 19 21 23 23 23 22 22 22 23 23 23 23 22 22 22 22 21 21 22 22 24 23 24 25 23 23 20 17 17 16 16
18 17 15 15 14 14 14 16 17 17 17 16 14 14 14 13 12 12 12 12 11 9 10 11 13 23 35 45 57 58 52 51 47 42 39 36 37 34 21 14 18 19 15 15 13 16 21 18 19 19 16 17 17 17 17 18 19 21 22 23 24 23 22 22 22 22 22 23 23 23 23 23 23 23 23 23 23 23 22 23 22 22 22 20 20 19 19 19 19 19 19 19 17 16 16 16 16
19 17 16 17 17 15 14 14 15 16 18 17 16 16 15 15 13 13 13 12 11 10 10 13 15 25 37 44 52 53 48 48 47 43 42 41 40 32 22 20 23 19 16 14 13 19 22 19 19 18 16 17 17 17 18 18 19 21 23 23 23 23 22 23 23 23 23 23 23 23 23 23 23 23 23 22 22 22 22 22 22 21 21 20 19 19 18 18 18 17 17 16 16 17 16 16 16
19 19 17 18 19 18 15 14 14 15 17 17 17 16 16 15 14 13 12 12 12 10 12 16 19 26 37 44 48 50 50 51 49 44 44 42 37 33 29 27 23 18 16 13 15 21 23 20 19 17 16 16 16 17 17 17 19 21 23 23 23 23 23 23 23 23 23 23 23 23 24 23 23 23 23 23 22 22 22 21 21 21 20 20 19 19 19 18 17 17 17 17 17 17 16 16 16
21 21 18 18 20 20 18 17 15 15 17 17 17 16 16 16 15 14 13 13 12 11 16 20 23 31 39 41 42 49 55 53 47 41 40 38 34 34 34 29 21 17 15 13 16 22 23 21 19 16 16 16 16 17 17 17 19 20 22 23 23 23 23 24 23 23 23 23 23 23 24 24 24 24 23 24 23 23 23 22 22 22 21 20 19 19 19 18 19 18 18 18 17 17 17 17 17
20 20 18 18 21 21 18 18 17 16 17 16 17 16 16 16 15 15 14 15 13 13 20 23 26 35 38 34 36 49 58 53 46 40 34 30 29 30 29 25 20 17 14 14 18 23 23 22 18 16 16 16 16 16 17 17 18 20 22 23 23 23 23 24 23 23 23 23 23 23 24 24 24 25 25 24 25 24 23 24 23 22 21 20 20 20 20 19 19 19 18 18 18 18 18 18 18
16 17 19 20 24 23 19 20 20 19 19 17 17 17 17 17 16 15 14 17 15 13 21 24 24 31 31 27 30 44 56 54 47 41 32 25 22 22 23 22 19 16 15 16 20 23 23 21 17 16 16 16 16 17 16 17 18 20 21 23 23 24 24 24 25 25 25 24 25 25 24 24 25 26 27 26 26 25 24 24 24 22 21 21 21 20 20 20 19 19 19 19 19 19 18 19 19
14 16 19 23 28 27 21 22 22 21 21 19 19 18 17 18 18 16 15 19 18 12 18 24 23 25 26 24 26 36 50 53 51 45 36 26 19 17 18 20 17 16 16 17 19 22 23 20 16 16 16 16 16 16 16 17 18 19 21 22 23 24 25 26 27 27 27 27 27 27 26 26 27 28 29 28 27 26 25 24 23 22 22 22 22 22 21 21 21 21 21 20 20 20 20 21 21
14 15 18 24 32 33 27 23 22 22 23 22 21 20 19 18 19 18 15 19 22 15 15 23 25 23 23 24 25 30 41 49 52 49 40 27 18 16 17 18 17 16 18 18 17 20 22 20 16 16 15 16 17 16 17 17 18 20 21 22 22 24 26 27 29 29 29 29 29 30 29 29 29 30 30 30 29 28 26 25 24 22 22 23 23 23 23 23 23 23 23 23 23 23 24 24 25
14 14 17 24 33 37 33 28 25 23 24 25 24 22 20 19 19 19 17 17 23 19 13 20 28 27 25 26 28 31 37 45 50 51 44 28 17 16 16 17 16 16 20 19 17 21 22 19 17 17 16 16 17 16 17 17 18 20 21 22 22 23 26 27 29 30 30 31 31 31 31 31 30 30 30 30 30 29 28 26 25 23 23 24 24 24 25 25 25 26 26 26 26 27 28 30 30
14 15 18 24 35 42 41 38 32 25 24 26 27 25 22 20 19 20 18 16 21 22 14 15 25 30 29 28 30 32 35 41 48 51 46 29 15 13 15 16 15 17 21 20 19 22 22 19 17 17 16 17 17 17 17 17 18 20 21 21 22 23 25 26 28 29 30 30 31 31 31 31 31 30 29 30 30 29 28 27 26 26 25 24 25 25 25 26 27 28 29 29 29 30 32 34 35
13 15 19 27 39 45 46 45 39 30 25 26 29 28 25 22 20 20 19 16 18 22 18 13 19 30 33 32 31 31 33 37 45 51 43 26 14 12 14 15 15 19 22 20 21 24 23 19 17 16 16 17 17 17 17 17 19 20 21 21 21 23 23 25 25 26 28 29 30 30 30 30 30 29 28 28 29 29 28 28 27 27 26 26 26 26 26 27 28 30 33 34 34 35 36 36 38
13 13 18 26 37 44 46 47 46 37 25 24 30 29 27 25 22 21 20 17 17 20 21 14 14 24 32 35 33 30 31 33 43 48 34 19 12 11 14 14 17 23 22 19 21 24 24 20 17 16 17 18 18 18 17 18 19 20 21 21 21 22 22 23 24 24 26 27 28 28 28 28 28 28 28 27 28 28 27 27 27 27 27 27 27 27 27 28 29 31 34 39 41 41 40 38 39
12 12 15 18 26 33 36 42 47 39 25 23 29 30 30 29 26 24 22 18 17 18 21 17 14 19 26 32 33 31 29 30 41 43 24 12 11 12 14 13 19 25 20 18 22 25 26 21 17 17 17 18 18 18 18 18 19 20 21 21 21 21 21 22 22 23 24 26 27 27 26 26 26 26 27 27 26 26 26 26 26 26 26 27 28 27 28 29 30 32 35 38 41 41 40 39 39
11 11 13 13 16 20 23 33 41 37 26 23 29 33 33 32 30 29 24 20 19 17 20 19 14 17 21 24 28 29 27 29 40 36 17 10 11 12 13 13 21 24 18 20 24 28 29 22 17 17 16 17 18 18 19 18 18 19 20 20 20 20 21 21 22 22 23 24 26 26 26 25 25 25 25 26 26 26 25 25 25 25 26 27 27 28 29 31 31 33 34 35 36 37 37 38 38
11 11 11 11 12 14 16 24 31 36 32 24 31 39 36 34 35 34 28 23 21 18 19 20 15 15 20 22 25 27 25 30 38 30 13 9 12 12 11 15 21 20 18 22 26 29 30 22 17 16 16 17 18 18 19 18 18 19 19 19 19 19 20 21 22 22 22 23 24 24 25 24 24 24 25 26 26 26 25 25 25 24 25 26 26 28 31 33 33 33 33 33 34 35 36 37 38
11 10 11 10 11 11 13 16 23 35 37 28 35 44 41 38 38 37 34 28 23 19 18 21 16 12 17 21 25 28 28 33 37 25 10 8 12 11 12 19 22 19 20 24 26 29 28 22 17 16 16 16 17 18 18 18 19 19 19 18 18 18 19 20 20 21 21 21 22 22 23 23 23 23 24 25 26 26 26 25 25 25 24 25 25 28 31 33 32 32 32 32 34 35 35 36 37
12 11 11 11 11 10 11 12 17 29 38 38 41 47 47 45 40 38 39 35 28 22 18 20 18 11 11 15 20 28 32 35 34 20 8 9 10 11 16 21 21 19 23 25 25 28 28 24 19 16 16 16 17 18 17 18 18 18 19 19 19 18 18 18 19 19 20 20 20 21 21 22 22 22 23 25 26 26 26 26 26 26 26 26 25 27 30 32 32 31 31 32 32 33 34 35 36
13 12 12 12 12 11 11 12 14 23 39 49 48 49 53 50 43 41 43 40 32 24 19 20 19 12 8 10 11 17 25 30 30 17 7 8 10 14 20 19 17 20 25 26 27 29 29 26 20 16 17 16 16 17 17 18 18 17 18 18 19 19 18 19 18 18 19 20 20 21 21 21 22 23 23 24 25 25 26 26 27 27 27 27 26 26 28 30 31 31 31 31 32 32 33 34 35
13 12 12 13 13 11 11 11 13 18 32 47 48 47 53 52 45 44 47 42 33 27 23 20 19 14 8 9 8 9 12 18 21 14 6 7 11 18 21 15 16 22 25 27 29 28 29 27 21 17 17 16 16 17 17 17 17 17 17 17 18 18 19 19 18 19 18 19 21 21 22 23 22 23 23 24 24 24 25 26 27 28 28 28 28 27 27 28 30 30 31 31 32 32 33 34 35
15 15 15 14 13 12 11 11 12 15 23 35 38 38 50 53 42 43 48 40 32 32 28 21 19 18 11 9 8 8 8 10 12 10 6 7 13 20 19 15 18 23 24 25 25 25 27 28 23 18 17 17 16 16 16 16 17 17 17 17 17 17 18 18 18 19 19 19 20 21 22 24 24 24 23 23 24 24 25 26 27 28 27 28 29 28 27 28 28 29 30 31 31 33 34 35 34
18 17 16 15 14 13 12 12 12 13 15 21 25 28 46 52 37 41 48 34 31 39 32 21 20 20 17 11 9 8 8 8 8 7 6 7 13 20 18 16 20 23 22 23 23 24 27 27 23 18 17 17 16 15 15 15 16 17 17 18 18 18 18 18 18 18 19 19 19 20 20 22 22 23 23 24 25 26 26 27 29 30 30 28 27 28 27 27 27 28 29 30 31 31 33 34 34
20 17 17 15 15 14 13 13 11 13 12 13 16 19 36 46 34 40 48 31 30 42 36 25 21 21 21 17 13 10 8 8 7 6 7 8 13 20 19 18 21 23 23 23 24 28 31 27 20 18 17 17 16 16 15 15 15 16 16 17 18 19 19 19 20 19 19 19 19 20 20 20 21 21 22 25 28 32 34 34 34 36 35 30 26 27 26 26 26 27 28 28 29 30 30 32 33
18 16 16 14 15 16 15 15 13 13 12 11 13 13 24 35 29 36 46 34 33 46 42 32 24 21 23 23 21 15 9 9 8 6 8 8 12 18 20 20 22 24 23 23 27 33 36 30 22 18 17 16 16 16 15 15 16 15 15 16 16 18 19 19 21 21 20 20 19 19 19 19 20 20 21 24 30 36 40 42 43 43 42 37 31 27 26 26 25 25 26 27 28 29 30 30 31
19 17 19 21 23 22 18 18 17 16 15 12 13 13 16 24 25 33 44 37 37 48 45 38 31 24 22 24 27 23 14 10 9 7 8 8 10 16 20 21 22 25 24 23 29 35 38 36 32 28 24 23 22 22 22 22 21 19 17 16 15 16 17 18 20 21 22 23 22 20 20 20 19 20 20 21 25 30 34 38 42 45 49 50 45 34 26 26 26 24 25 26 27 28 29 29 29
21 20 25 27 24 19 17 19 18 17 18 16 14 14 14 17 20 29 39 34 35 45 45 42 39 31 25 24 27 28 22 13 9 8 8 9 10 13 18 21 21 24 25 24 27 33 37 38 38 38 36 36 36 34 34 33 30 26 22 18 16 16 16 17 18 20 22 23 23 23 22 21 20 20 20 20 21 23 26 30 34 41 50 58 59 47 31 25 26 24 24 25 26 27 27 28 29
24 27 30 26 20 19 20 21 22 26 29 22 16 14 14 14 16 23 31 31 36 46 47 45 44 39 31 26 25 28 28 19 11 9 9 9 10 11 16 20 21 23 25 25 26 29 34 35 35 35 33 35 37 39 41 40 35 31 26 22 19 16 17 17 18 20 22 23 25 26 26 26 25 22 20 20 21 21 23 27 30 37 47 58 67 57 35 25 25 24 24 24 24 25 26 27 29
27 31 28 25 24 25 27 30 35 39 35 23 16 14 13 13 14 16 21 25 34 47 53 50 48 46 40 32 26 26 30 26 16 9 10 10 10 11 14 18 20 21 23 25 26 27 30 31 31 30 28 28 30 35 39 38 35 32 29 25 21 19 18 19 20 23 25 26 28 28 28 28 26 25 22 21 22 22 24 28 32 36 42 51 60 54 35 25 25 23 23 23 23 25 26 27 30
27 29 25 27 29 29 36 42 44 44 36 25 20 18 14 13 12 13 15 17 25 41 51 52 50 50 47 39 30 25 28 32 22 12 10 11 10 10 12 15 17 18 21 23 24 25 27 28 29 28 28 28 28 30 35 37 35 33 31 27 24 21 20 22 25 27 28 29 31 34 37 38 37 35 30 27 25 23 24 27 32 36 39 41 44 40 30 24 24 24 23 23 23 24 25 26 28
26 27 25 28 29 32 43 49 49 53 46 31 24 21 15 13 12 12 13 13 19 32 45 49 49 50 50 45 38 29 26 31 29 18 11 10 11 10 10 12 14 15 18 21 22 23 23 23 24 25 25 26 26 28 33 37 37 35 32 29 26 24 25 27 28 30 33 37 43 53 60 65 66 61 54 48 43 37 32 30 32 36 41 39 33 27 25 23 23 23 24 24 24 24 24 25 26
28 28 27 30 31 35 45 50 57 66 56 33 24 21 15 14 14 13 13 12 15 25 38 46 49 50 51 49 45 38 29 28 31 27 17 10 10 11 10 11 12 12 14 16 18 21 22 22 22 23 24 25 26 29 33 36 37 35 32 30 29 30 32 36 40 45 52 57 63 70 74 77 78 75 71 66 61 56 50 46 43 42 45 44 34 25 23 23 22 23 24 24 25 24 24 25 26
Wind_Speed
24 23 23 23 23 22 22 20 18 18 17 18 19 18 16 14 12 10 11 13 13 14 14 15 15 15 16 16 17 18 18 19 20 20 19 20 22 24 26 27 30 30 31 32 31 31 30 28 28 26 24 22 20 20 18 17 17 18 18 19 19 17 15 13 12 10 9 9 9 9 10 12 14 14 14 14 13 13 12 11 11 10 10 9 9 8 7 5 4 5 5 6 6 4 2 2 1
24 24 24 24 24 23 22 21 19 18 17 20 20 19 18 18 16 13 13 16 16 16 16 16 16 16 17 18 20 19 19 21 22 22 21 21 23 25 27 28 30 32 33 33 31 30 28 26 26 24 22 21 20 19 17 17 17 18 17 17 15 12 11 9 8 7 8 8 9 11 13 14 15 15 15 15 14 14 13 13 12 12 12 11 10 9 8 6 4 5 6 7 7 5 3 2 2
25 25 25 25 24 23 23 22 21 19 18 22 22 20 19 18 18 17 18 18 19 19 18 17 16 16 18 20 21 21 21 22 23 23 22 22 24 26 27 28 30 32 33 32 30 28 26 25 24 22 21 20 19 18 17 17 17 17 16 13 10 9 7 5 5 6 7 8 11 13 14 15 15 15 15 15 15 15 14 13 13 13 13 12 12 10 8 7 5 5 6 7 7 5 3 3 2
27 26 25 25 24 24 23 23 23 22 23 24 24 22 20 19 18 18 18 19 20 19 18 17 17 17 19 21 21 22 24 25 25 22 21 23 25 26 27 27 29 31 31 30 28 26 25 23 22 21 20 19 18 18 17 17 16 15 12 9 7 6 4 4 5 6 7 10 12 13 14 14 15 15 16 17 17 16 16 15 15 15 15 14 12 10 8 6 5 4 6 6 5 3 2 2 2
28 27 27 26 25 24 24 24 25 25 25 24 23 22 21 20 19 18 17 19 19 18 18 17 18 19 19 19 20 22 24 25 23 21 22 24 26 26 26 27 28 29 29 28 26 25 23 23 22 21 20 19 18 17 16 15 14 11 7 6 5 4 4 5 6 7 9 11 12 12 13 13 14 16 17 19 19 18 17 17 17 17 16 14 12 10 7 5 4 4 4 5 4 3 2 1 2
29 28 28 28 27 26 26 26 27 27 26 25 24 22 22 22 21 20 17 19 20 19 19 20 21 21 20 20 21 22 22 21 21 22 24 26 27 27 27 27 27 28 28 26 24 24 22 23 23 21 20 18 17 16 15 13 10 6 5 4 4 5 5 6 7 7 9 10 10 11 12 14 15 17 19 20 20 19 19 19 19 19 17 15 13 10 7 5 4 3 3 3 4 3 3 3 3
30 30 30 30 30 29 28 29 29 29 27 26 26 25 24 24 23 22 21 21 22 22 23 25 24 24 23 23 24 25 24 24 26 28 28 28 28 28 27 26 26 27 26 24 23 23 24 24 23 20 19 17 16 14 12 10 6 4 3 4 6 6 6 6 7 7 8 8 9 11 13 15 17 19 21 21 20 20 21 21 21 21 20 18 15 12 10 9 7 5 2 1 2 4 4 4 4
32 32 32 31 32 31 31 31 32 31 29 28 27 27 27 26 26 25 25 24 24 24 25 27 26 25 26 25 25 27 28 30 31 32 31 31 30 27 26 25 26 27 26 24 23 24 25 25 22 19 17 15 13 11 9 5 3 3 4 6 6 6 6 6 6 7 7 7 9 11 13 16 18 20 20 20 20 21 22 23 24 24 24 22 19 19 19 19 16 13 9 6 3 2 3 4 4
34 34 33 33 33 33 33 33 33 33 32 31 30 29 29 29 28 27 27 26 26 26 26 27 27 27 28 27 27 28 30 31 32 32 33 32 29 26 25 24 25 26 25 24 24 25 26 25 21 18 15 12 10 8 5 3 3 3 5 6 6 6 6 6 6 5 6 7 9 11 14 17 19 20 19 19 20 21 23 25 28 29 28 26 24 25 26 26 24 21 16 12 8 4 2 1 3
35 35 35 35 35 35 34 34 34 34 33 33 32 31 31 30 30 29 29 28 28 28 28 29 29 28 29 30 29 30 30 31 32 32 32 30 27 24 24 24 24 25 24 23 24 25 26 24 19 15 12 10 7 4 2 2 3 5 6 6 7 7 7 6 5 5 6 8 9 12 16 18 19 18 18 19 21 22 24 27 30 32 31 29 28 28 28 28 29 28 24 20 15 11 8 5 3
37 37 36 36 37 36 36 36 36 35 35 34 34 33 33 33 32 32 31 31 31 31 31 31 31 31 31 32 31 31 32 32 32 31 30 28 25 24 24 24 23 24 23 23 24 25 25 21 16 12 9 7 4 2 1 3 5 6 6 7 8 8 7 6 5 6 8 9 10 13 16 17 17 18 18 19 21 23 25 28 31 33 33 32 31 29 28 28 28 28 27 25 22 19 17 15 12
38 38 37 37 38 38 38 38 38 37 37 36 36 35 35 35 35 35 34 34 33 33 33 33 33 33 33 33 33 32 32 32 32 31 29 26 24 23 23 22 23 23 22 22 23 24 22 17 13 9 6 3 1 1 3 6 7 7 8 10 9 8 7 6 6 8 10 10 11 14 15 16 18 18 18 20 21 24 26 29 32 33 34 35 34 33 31 29 28 27 25 24 23 21 20 18 17
38 38 38 38 39 39 39 39 39 39 39 38 38 38 37 37 37 37 36 36 35 35 35 34 34 34 34 34 34 33 33 32 31 29 26 23 22 22 22 22 22 22 22 22 22 22 18 13 9 5 2 1 1 2 6 7 8 8 10 11 10 9 8 8 9 10 11 10 12 13 14 16 18 18 18 20 22 24 27 29 31 33 34 35 35 35 34 32 31 29 27 25 22 20 18 17 16
38 38 38 39 39 40 41 41 40 40 40 40 40 40 39 39 39 38 38 38 38 37 37 36 36 35 35 35 35 34 33 32 30 27 24 21 20 20 21 21 22 21 20 20 20 18 13 9 5 3 2 1 2 6 8 8 9 10 12 12 11 10 10 11 11 11 10 10 12 13 15 17 17 18 18 20 22 24 26 29 30 32 33 34 34 34 34 34 33 32 31 29 27 25 22 20 19
37 38 38 39 40 41 42 42 41 42 42 42 41 41 41 41 40 40 40 39 39 39 38 38 37 37 36 36 35 34 32 30 27 24 21 19 19 20 20 21 21 20 19 18 17 13 9 6 3 2 1 2 5 8 8 9 11 12 13 12 12 12 12 13 12 11 10 10 11 13 16 17 17 17 18 20 22 23 25 27 29 30 31 32 33 33 34 33 33 32 32 32 31 29 27 25 23
36 37 38 39 40 41 42 42 42 43 43 43 43 42 42 42 41 41 40 40 40 40 39 39 38 37 36 36 34 33 31 28 25 22 20 19 18 19 20 21 20 18 16 16 13 8 6 4 3 2 2 5 8 9 9 11 12 13 13 13 13 13 13 13 12 11 10 10 12 14 16 16 16 17 18 20 21 22 23 25 27 28 29 30 31 32 32 32 33 33 33 33 32 31 30 29 27
32 34 35 37 39 40 41 42 43 43 43 43 43 43 42 42 41 41 41 41 40 40 40 39 38 37 36 35 34 32 29 26 23 21 19 18 18 19 20 20 18 16 14 13 9 6 5 4 3 1 4 8 9 9 11 13 14 14 14 13 13 13 13 13 12 10 10 11 13 15 16 16 16 17 18 19 20 20 21 22 24 25 26 28 29 29 30 31 32 32 33 33 33 32 31 30 29
27 29 31 33 35 38 39 41 42 42 43 43 43 43 42 42 41 41 41 40 40 39 39 38 37 37 36 35 33 31 29 26 23 20 19 17 18 19 20 19 15 13 12 9 5 4 4 3 2 3 7 9 9 10 12 14 14 14 14 13 13 13 13 13 12 11 12 13 14 15 15 15 16 17 18 18 18 18 19 19 20 22 23 25 26 27 28 29 30 31 32 33 34 33 32 31 30
20 24 26 29 31 33 35 37 39 40 41 42 42 42 41 41 40 39 39 38 38 37 36 36 36 36 35 34 33 31 28 25 22 20 18 17 18 19 19 16 13 12 10 6 3 3 3 2 1 6 9 9 10 12 14 14 14 13 13 13 13 13 13 13 13 12 13 14 15 15 15 15 16 17 18 18 17 17 16 17 17 18 20 21 23 24 25 27 29 30 31 32 32 32 32 31 30
12 15 19 23 27 29 31 33 34 36 37 38 38 38 37 37 36 36 36 35 35 34 34 35 35 35 34 33 32 30 27 24 21 19 17 16 18 18 18 14 12 11 8 4 1 2 1 1 4 9 10 10 12 13 14 14 13 13 13 13 14 14 14 13 13 13 14 15 15 14 15 15 16 16 17 17 16 16 15 15 15 16 17 18 19 21 22 24 25 27 28 29 29 30 31 31 31
7 8 11 16 21 24 27 28 30 32 32 33 33 33 33 33 33 32 33 33 33 33 33 33 33 34 34 33 31 29 25 21 19 17 15 16 18 18 16 13 12 10 7 4 2 2 1 3 7 11 11 12 13 13 13 13 13 13 13 14 14 14 14 14 14 15 15 15 14 15 15 16 16 15 15 15 15 15 15 15 16 16 17 17 18 18 19 20 20 21 24 25 25 26 28 29 29
8 7 7 10 13 17 21 23 25 26 27 28 28 28 28 28 28 29 29 30 30 31 31 31 31 32 32 32 30 26 23 21 19 18 17 18 19 18 15 13 12 10 8 5 3 2 3 7 10 12 12 13 14 13 13 13 14 14 14 14 14 14 14 15 15 16 15 15 15 16 16 17 17 17 15 15 15 15 16 16 17 18 19 19 19 18 18 19 18 18 19 19 20 21 23 26 27
9 8 7 7 8 10 13 16 18 20 21 22 22 23 22 23 24 25 26 26 26 26 26 26 27 29 29 29 27 25 23 21 19 18 18 19 19 17 14 13 13 11 8 6 5 4 6 10 12 13 13 14 14 14 14 15 15 15 15 15 15 15 15 16 16 16 15 15 17 18 18 19 19 19 18 16 16 16 16 17 18 19 20 20 20 20 20 20 20 19 20 20 20 19 19 21 23
10 9 7 6 6 6 7 9 12 14 16 17 17 17 18 19 20 21 21 20 20 21 21 23 24 26 27 27 24 21 18 17 16 16 17 18 18 16 15 15 14 11 9 7 6 6 9 13 13 14 14 14 14 15 16 16 16 16 16 16 16 16 16 16 16 15 15 17 19 19 20 21 21 21 20 19 18 18 18 19 19 19 19 20 20 20 20 20 21 20 19 21 20 18 17 18 19
12 11 9 8 7 6 6 6 8 10 11 11 11 12 13 14 15 15 16 17 17 18 19 21 23 24 25 24 20 16 15 14 15 16 16 17 17 16 16 16 14 12 10 9 8 8 12 15 15 15 16 15 15 16 17 17 17 17 16 16 16 16 16 16 15 15 17 19 20 20 20 21 22 22 22 22 21 21 22 22 22 21 20 20 19 20 20 20 20 17 15 17 18 17 16 16 17
14 12 11 10 9 8 8 8 8 9 9 10 10 10 11 11 12 13 14 15 15 17 18 20 21 23 24 21 17 14 14 14 15 15 16 17 17 17 17 17 15 14 11 10 9 11 15 16 16 16 16 16 17 17 17 17 17 17 17 17 17 17 16 16 15 16 18 20 20 20 21 22 23 23 23 23 23 24 24 24 24 24 23 23 21 21 21 20 20 17 16 16 18 19 18 17 17
16 15 13 12 11 10 10 10 10 10 11 11 11 10 11 11 11 12 12 13 14 15 17 18 20 22 21 18 15 13 12 12 14 15 16 17 18 18 19 18 17 15 13 11 11 14 17 18 17 17 16 18 18 18 17 17 17 17 17 17 17 17 16 16 17 18 20 20 21 21 22 23 23 23 24 24 25 25 26 26 26 26 26 26 25 24 24 23 21 20 19 19 20 21 21 21 20
19 18 16 14 13 13 12 12 11 12 13 13 12 11 11 11 11 11 12 12 14 15 16 17 19 19 19 17 13 12 11 12 14 16 17 18 18 19 20 18 17 16 14 13 14 16 18 18 18 17 17 19 19 18 18 17 17 17 17 17 17 17 17 17 19 20 20 21 21 22 22 23 23 23 24 25 26 26 27 27 27 27 27 28 28 27 26 25 24 23 23 24 24 24 24 24 23
22 21 19 16 15 15 15 13 13 13 13 14 13 12 11 11 11 11 11 13 14 15 15 16 16 17 18 16 12 11 12 13 15 17 18 18 19 20 20 18 16 15 14 14 17 19 19 19 19 18 19 19 19 19 18 18 17 18 17 17 17 17 17 18 20 21 21 21 21 22 22 22 23 23 24 25 26 26 27 27 27 28 28 30 30 30 29 27 26 27 27 27 27 27 27 27 26
24 23 22 19 17 18 17 15 14 13 13 14 14 13 11 11 11 11 12 13 14 15 14 14 13 15 16 15 13 13 13 15 16 17 17 17 19 19 20 19 17 15 14 16 19 21 20 19 19 19 19 20 20 19 18 18 17 17 17 17 17 17 18 19 21 21 21 21 21 21 21 22 22 23 24 25 25 26 27 28 28 29 30 30 31 30 30 30 29 29 29 29 30 30 29 29 29
27 26 24 22 21 21 19 17 15 14 14 14 14 13 12 11 11 11 11 13 14 14 13 11 10 12 15 15 15 14 14 15 15 16 16 17 19 19 19 19 17 15 15 18 21 22 21 20 19 19 20 20 20 19 18 18 18 17 17 17 17 17 18 20 20 20 20 20 21 21 21 21 22 22 23 24 25 26 27 28 28 29 30 31 31 31 31 31 31 31 31 31 31 31 31 31 31
30 29 27 25 24 24 22 20 17 15 14 14 14 13 12 11 10 10 11 12 13 13 10 8 8 10 14 16 16 15 14 14 15 16 16 17 19 20 20 19 19 16 16 19 23 23 23 21 20 20 20 20 20 19 18 18 17 17 17 17 17 17 19 19 20 20 20 20 20 20 21 21 21 22 23 23 24 25 26 27 28 29 30 31 31 31 31 32 32 32 32 32 33 33 33 33 33
33 31 30 28 27 27 25 23 20 17 15 15 14 14 13 11 10 9 10 11 11 10 8 7 7 10 13 15 17 16 15 15 16 16 16 17 18 20 21 20 19 17 17 21 24 24 23 22 21 20 20 20 20 19 18 18 17 17 17 16 17 17 19 19 19 19 19 19 19 20 20 20 21 22 23 23 24 25 26 27 28 29 29 30 30 31 31 32 32 32 32 33 33 33 34 34 34
34 33 32 30 30 30 28 25 23 19 16 15 15 14 13 12 10 9 9 9 9 8 7 8 8 10 13 14 16 17 17 17 17 17 16 16 18 20 21 21 20 19 19 23 25 25 25 23 21 21 20 20 20 19 18 18 17 17 17 17 17 17 18 19 19 18 18 18 19 19 20 20 21 22 23 24 25 25 25 26 27 28 28 29 29 30 31 31 32 32 32 32 32 33 33 34 34
35 34 34 33 33 33 31 28 26 22 18 16 15 15 14 13 11 10 8 8 8 8 8 9 9 11 13 14 16 17 19 20 19 18 17 16 17 20 21 22 21 20 22 24 25 27 26 24 22 21 21 21 20 19 18 18 18 17 17 17 17 17 18 18 18 18 17 18 18 19 19 20 21 22 23 23 24 24 24 25 26 26 26 27 28 28 29 30 30 31 31 31 31 32 32 32 33
36 36 35 35 35 36 34 31 29 25 21 18 16 16 16 15 13 11 9 7 7 7 8 9 10 12 13 15 16 17 19 21 21 19 18 16 17 20 21 22 22 22 24 25 25 27 26 24 22 21 20 20 20 19 18 18 18 17 17 17 17 17 18 18 17 17 17 17 17 18 18 19 20 21 22 22 23 23 23 23 24 24 24 25 26 26 27 28 29 29 29 30 30 31 31 31 32
38 37 36 37 37 38 37 34 32 29 24 20 18 17 17 17 15 13 12 9 7 6 7 9 11 13 14 16 17 18 19 21 22 20 18 17 17 20 22 23 22 23 25 26 26 27 26 24 23 21 20 20 19 19 19 18 18 18 17 17 17 17 17 17 17 17 17 17 17 17 18 18 19 20 21 21 21 22 22 22 22 22 22 23 23 23 24 25 26 27 27 28 28 29 29 30 30
39 39 39 39 40 40 39 37 35 32 28 24 21 19 19 19 17 15 14 12 8 7 6 8 11 14 15 16 17 18 19 21 22 20 18 17 18 20 22 22 23 24 26 26 27 27 26 24 23 22 21 20 19 18 18 18 18 17 17 17 17 17 17 17 16 16 16 16 16 16 16 17 17 18 19 19 19 20 20 20 20 20 20 20 20 21 21 22 23 24 24 25 26 26 27 28 29
41 42 42 43 44 43 41 40 38 35 32 28 24 23 21 20 19 17 16 14 10 8 7 8 10 13 16 17 17 18 19 20 22 20 18 17 18 21 23 23 24 25 28 28 29 29 26 25 23 21 20 20 19 18 18 18 18 17 17 17 16 16 16 16 15 15 15 15 15 15 15 15 15 16 17 17 17 18 18 18 18 18 18 18 17 18 18 19 20 21 21 22 23 24 25 26 27
42 44 46 48 49 47 44 42 40 38 36 31 27 26 23 22 20 18 18 16 13 10 8 8 9 12 16 18 18 18 19 20 22 20 17 17 19 22 24 25 26 28 29 30 30 29 26 25 23 21 20 19 19 18 18 18 17 17 17 16 16 16 16 15 14 14 14 14 14 14 13 13 13 14 14 15 15 15 15 15 16 16 16 15 15 15 16 16 17 17 18 19 20 21 23 24 25
44 45 49 51 51 49 46 43 43 42 37 32 30 27 24 24 22 19 19 18 15 13 9 8 10 12 16 19 19 18 19 20 22 20 17 17 20 24 27 28 29 29 30 30 30 28 26 25 24 22 20 19 19 18 18 18 18 17 17 16 16 15 15 14 14 13 13 13 12 12 11 11 11 12 12 13 13 13 13 13 13 13 13 13 13 13 13 13 14 14 16 18 19 20 21 22 23
44 44 49 51 50 48 45 44 45 42 37 34 31 29 28 26 24 22 21 19 18 16 12 9 10 12 14 17 19 19 19 21 22 20 17 18 22 26 28 30 31 31 30 30 31 29 26 26 25 23 21 20 19 18 18 17 17 17 17 16 15 15 14 13 13 12 12 12 11 10 10 9 9 9 10 10 10 10 10 11 11 11 11 11 10 11 11 11 11 12 14 16 17 18 19 20 21
41 42 47 48 46 46 45 44 44 41 38 35 32 32 31 28 27 25 22 21 20 18 14 11 11 12 13 14 17 18 20 22 22 20 19 19 23 25 27 29 31 30 30 31 32 30 28 27 26 24 22 20 19 18 17 17 17 16 16 15 14 13 13 13 12 11 10 10 10 9 8 8 7 7 8 8 8 8 8 8 8 8 8 8 8 8 9 10 10 11 12 14 16 17 18 19 20
39 41 43 44 43 43 43 42 41 41 41 37 35 35 33 32 31 28 24 23 23 21 18 14 12 13 14 14 15 17 20 22 22 21 19 21 23 25 27 30 30 30 31 33 33 31 28 27 26 24 23 21 20 18 17 17 16 15 14 13 12 12 11 11 11 10 8 8 8 7 7 6 5 6 6 6 6 6 6 6 6 6 6 6 6 7 7 8 9 10 11 13 15 16 17 18 20
37 38 39 39 40 39 39 39 40 43 42 39 39 39 37 37 35 30 27 26 25 24 20 16 14 14 15 15 16 18 20 21 22 21 20 22 23 25 29 32 32 32 33 33 32 30 27 27 27 26 24 22 20 19 18 16 15 15 14 12 11 10 9 9 9 8 7 6 5 5 5 4 4 4 4 4 4 4 5 5 5 5 6 6 7 7 7 8 9 10 11 13 14 16 17 18 20
36 36 35 36 37 37 37 38 40 44 43 43 46 44 41 42 37 32 31 31 29 25 21 19 16 15 14 14 16 18 20 22 22 22 22 24 25 28 32 35 34 34 34 33 31 30 28 28 28 27 25 23 22 21 19 17 16 15 14 12 11 9 8 7 7 7 6 5 4 3 3 3 3 3 3 3 4 4 4 5 6 6 7 8 8 8 8 8 9 11 12 13 15 16 17 19 20
34 33 33 35 36 36 37 38 41 45 47 50 52 49 46 45 39 37 37 36 31 24 22 22 19 16 14 12 13 15 19 23 24 24 24 26 28 32 35 35 34 34 34 34 33 32 29 27 27 27 26 24 23 22 20 18 16 15 13 12 10 9 7 6 5 5 5 4 3 2 2 3 3 3 3 3 4 4 5 5 6 7 8 8 9 10 10 11 11 12 13 14 15 17 18 19 20
32 31 32 34 34 35 36 39 41 46 51 55 54 50 47 46 41 40 41 38 30 24 25 25 20 17 15 13 12 13 16 21 25 26 26 29 32 35 35 34 32 33 34 35 34 33 30 28 28 28 27 26 24 22 21 19 17 15 13 11 10 9 7 6 5 4 3 3 2 2 2 2 3 3 4 4 4 5 5 5 6 7 8 9 10 11 12 12 13 14 15 16 17 18 19 20 21
31 31 32 32 32 33 35 38 42 48 53 55 53 48 47 48 44 41 42 38 32 28 27 26 22 19 17 14 12 12 13 18 23 26 28 31 35 36 35 33 32 32 33 34 33 32 30 29 29 29 27 26 24 23 21 19 18 16 14 13 11 9 8 8 7 6 5 4 3 2 1 0 1 3 3 4 5 5 6 6 6 8 9 10 10 11 12 13 14 14 16 17 18 19 20 21 22
33 31 31 31 31 32 34 38 41 46 50 52 49 46 49 51 45 42 42 38 34 31 28 27 25 22 19 16 14 13 13 16 22 27 28 32 36 37 36 34 33 33 33 34 33 31 29 28 28 28 27 26 24 22 21 20 19 18 16 15 13 12 11 10 9 9 8 7 6 5 4 3 3 3 4 4 5 5 6 6 7 9 10 11 11 12 13 14 14 15 16 17 19 20 21 23 24
34 30 29 28 28 30 33 35 37 41 45 46 45 46 51 52 46 43 42 39 36 33 31 29 26 24 21 19 17 16 14 15 21 26 29 33 37 37 36 34 34 34 34 35 34 32 30 28 27 27 26 25 24 23 22 21 20 20 19 18 16 14 14 12 11 11 10 10 10 9 7 6 6 5 5 6 6 7 7 8 8 10 11 12 13 14 14 15 16 16 16 17 19 20 22 24 25
33 29 26 25 27 30 31 31 33 36 40 42 43 46 50 52 48 45 45 43 40 37 34 31 28 26 24 22 20 19 17 16 21 26 29 33 37 38 37 36 35 35 35 35 35 33 31 28 26 26 25 25 24 23 22 22 22 21 21 20 18 17 16 15 13 13 13 13 13 12 11 10 9 9 9 9 9 9 10 11 12 13 14 15 15 16 16 17 17 18 18 18 19 21 22 24 26
34 29 27 28 29 28 26 28 30 33 37 41 43 45 49 51 50 49 48 45 42 39 36 34 31 28 27 25 23 22 20 19 20 24 28 33 36 37 38 37 37 36 36 35 35 33 31 29 27 27 26 25 24 23 22 21 22 22 22 21 20 20 19 17 16 16 16 16 16 15 14 14 13 12 12 12 12 12 13 14 15 16 17 17 18 18 18 18 19 20 19 19 20 22 23 24 26
34 31 30 30 27 24 23 26 29 30 35 40 43 45 48 51 51 51 50 47 44 41 38 37 34 31 29 29 26 24 23 21 20 23 27 33 36 37 37 38 38 37 36 35 34 32 31 30 29 29 28 27 25 24 24 23 23 22 22 22 21 21 20 19 19 18 18 18 18 17 17 17 16 16 15 14 15 15 16 16 17 19 19 19 20 20 20 20 21 22 22 21 22 23 24 25 27
36 36 34 29 26 24 23 25 27 29 34 40 41 43 46 50 52 52 50 49 47 44 41 40 38 35 33 32 30 27 25 24 23 23 27 33 37 37 37 38 38 38 37 36 34 33 33 32 31 30 29 27 26 26 27 26 24 22 22 22 22 21 21 20 20 20 20 20 19 19 18 18 19 19 18 18 18 18 19 19 19 20 21 21 21 21 21 21 23 24 24 24 24 24 25 26 28
40 40 34 30 31 28 25 25 27 29 33 38 38 40 44 47 49 49 48 48 48 46 45 43 41 39 37 35 32 29 26 26 26 26 28 32 35 36 36 36 36 36 36 35 35 35 35 34 33 32 30 29 29 29 28 27 24 23 23 23 23 23 22 22 22 22 22 20 19 18 19 19 20 20 21 21 21 21 22 22 22 22 23 23 23 23 23 23 24 26 26 26 26 26 27 28 29
42 40 36 35 35 32 29 28 27 27 32 37 37 39 42 43 44 45 47 48 48 47 47 45 42 40 39 36 33 31 29 28 28 28 29 31 33 35 34 34 33 33 33 33 34 35 35 34 34 33 32 32 31 31 30 28 26 25 25 24 24 24 23 23 22 22 21 19 19 19 19 20 22 23 23 23 24 24 25 26 26 26 26 26 25 25 25 25 26 27 28 28 28 28 29 30 30
46 45 42 41 40 37 35 32 30 30 33 37 37 37 39 39 41 43 45 48 49 49 48 47 45 43 41 38 35 33 32 30 29 30 31 31 32 33 32 31 31 30 31 32 34 35 35 35 35 34 33 33 33 32 31 29 29 28 26 25 25 25 24 23 22 22 21 21 21 21 22 23 24 25 26 26 27 27 28 29 29 29 28 28 28 27 27 28 28 29 30 30 30 30 30 31 32
Wind_Direction
213 215 222 227 226 225 227 229 233 234 236 241 236 236 243 242 244 246 257 268 269 269 270 274 278 281 286 292 301 305 305 310 310 307 310 308 308 311 312 312 310 312 312 314 317 318 320 318 318 318 318 316 313 312 310 309 307 305 305 309 317 323 331 339 340 342 349 0 16 36 55 62 64 64 62 60 57 54 49 43 35 28 19 12 3 355 345 330 310 284 271 270 270 257 238 245 264
214 215 218 224 228 229 232 233 235 238 237 240 243 244 244 250 254 244 251 271 277 276 276 277 281 285 293 300 303 304 305 308 309 307 308 310 311 312 312 312 312 312 313 316 319 320 321 319 319 319 318 316 313 311 309 307 305 306 309 316 324 333 344 348 349 0 13 33 54 64 63 60 60 57 56 55 53 51 47 42 36 29 22 15 8 358 344 329 311 286 276 277 271 252 218 195 218
215 215 218 221 226 229 233 235 236 237 231 237 247 248 248 254 258 255 258 269 275 278 280 281 284 290 299 301 301 301 302 303 302 301 304 308 310 311 312 313 313 314 316 319 321 322 322 320 319 319 317 314 311 308 305 303 303 308 315 323 335 348 357 1 13 29 46 65 70 65 59 57 55 52 50 46 44 41 37 33 28 23 20 17 13 7 354 334 309 276 269 274 261 242 213 176 174
217 216 218 220 224 227 230 235 237 238 235 239 246 247 250 255 259 263 266 272 276 280 281 283 286 292 300 298 299 300 296 294 293 296 303 308 309 309 312 314 315 316 318 320 322 323 323 320 319 317 314 312 310 307 304 302 305 313 322 335 351 7 25 36 43 59 75 77 71 64 60 56 52 49 45 40 37 33 29 27 24 23 20 18 15 11 2 342 318 273 252 255 253 250 229 180 183
220 219 219 220 223 227 230 235 238 241 243 245 248 248 250 254 261 266 270 270 268 275 277 281 286 290 293 290 296 297 292 289 290 298 306 308 309 311 314 316 316 317 319 321 322 324 322 317 317 315 313 313 311 308 305 304 309 319 335 353 13 51 71 59 67 84 86 81 74 67 61 55 49 43 38 33 30 28 27 26 24 23 22 19 15 12 5 350 327 290 245 231 235 245 251 235 222
220 221 221 222 224 227 231 236 240 243 247 251 252 252 250 250 257 261 262 257 256 266 271 277 283 287 287 286 289 286 285 291 298 306 310 311 312 314 315 316 317 317 319 321 322 322 319 316 317 315 315 314 313 311 307 308 315 332 354 20 69 93 80 72 87 98 93 87 79 70 59 48 40 33 28 25 25 28 29 28 27 26 25 22 18 16 16 13 352 317 261 219 201 207 228 223 210
220 222 223 224 226 229 232 236 241 243 247 251 253 255 256 254 258 260 259 258 261 265 267 273 280 286 288 289 287 280 285 298 307 311 312 314 315 315 315 315 316 316 318 320 321 321 318 317 317 316 315 314 314 314 311 314 329 358 24 77 102 101 82 85 102 107 101 93 81 69 52 39 29 23 21 23 28 33 34 33 33 32 31 30 31 37 45 49 47 43 31 1 172 178 203 218 217
221 223 225 226 228 231 233 237 241 244 246 250 253 256 260 261 263 264 264 265 267 267 268 272 279 286 288 289 288 285 292 301 306 308 309 311 312 313 312 313 313 314 317 319 320 320 318 317 317 316 315 316 318 318 318 329 2 33 82 107 110 99 87 97 112 114 107 96 83 65 43 29 20 18 20 26 36 39 40 41 40 40 40 42 49 58 62 61 61 63 65 63 74 133 193 222 233
223 224 226 228 230 232 235 238 241 244 247 250 254 257 261 264 266 266 267 269 270 271 271 274 280 285 286 287 288 288 292 296 300 302 304 306 308 309 310 311 311 312 315 317 319 318 318 317 316 316 317 321 324 324 331 5 44 88 111 114 109 96 92 106 117 117 107 95 82 57 32 20 17 19 25 36 44 45 48 49 47 47 49 54 61 66 66 63 62 63 67 70 71 74 82 250 262
226 227 228 230 232 234 236 239 242 245 248 250 254 257 260 263 265 267 268 270 272 273 275 277 281 283 284 286 288 289 291 294 297 298 301 303 304 306 308 308 308 310 312 315 317 318 317 317 318 320 324 330 331 335 0 48 93 113 116 111 102 96 98 107 116 114 102 94 75 43 22 18 21 29 38 46 49 52 57 56 54 54 56 61 65 68 67 66 65 64 65 67 70 70 66 58 32
231 231 231 233 234 236 238 240 243 246 249 252 254 257 259 261 264 267 269 272 274 276 277 280 282 283 285 287 288 290 292 294 296 297 298 300 301 304 305 305 305 307 310 313 315 317 317 318 322 326 332 337 340 356 43 97 114 114 112 107 100 99 101 102 108 105 98 90 62 29 19 24 34 43 49 52 54 60 64 62 60 59 60 63 66 68 67 67 67 68 68 69 70 71 72 70 68
235 236 236 237 238 239 240 241 244 246 249 251 254 256 259 262 265 268 270 272 275 277 279 281 282 284 285 288 289 291 292 294 294 295 296 298 299 302 302 302 303 305 308 310 314 316 317 322 330 334 342 355 13 41 106 117 116 111 109 105 102 101 97 96 100 98 97 82 43 22 25 38 47 51 54 58 61 66 67 66 65 63 63 64 66 67 66 66 66 68 69 71 72 73 75 74 74
238 239 239 240 241 242 243 243 244 246 248 251 253 256 258 261 264 267 269 272 274 276 278 280 281 283 286 287 288 290 291 291 292 292 293 296 298 300 299 300 300 303 306 309 313 315 319 330 339 347 15 69 76 113 123 121 115 112 109 105 103 100 94 94 96 97 93 64 30 26 39 49 53 55 59 64 67 69 69 69 68 67 66 66 67 67 67 67 66 66 67 69 71 73 75 76 76
238 239 241 241 242 244 245 246 247 248 249 250 252 255 257 259 262 265 267 270 272 274 276 278 280 282 284 285 286 288 288 288 289 289 292 294 296 297 298 298 299 302 304 307 312 315 326 342 353 21 74 91 120 129 126 120 115 113 110 105 103 98 94 93 93 93 80 47 31 40 50 53 56 58 63 70 72 73 72 70 70 69 68 68 68 69 68 67 67 67 67 67 68 70 72 73 75
239 239 240 241 242 244 246 247 248 249 249 250 252 254 256 258 260 263 265 268 270 272 274 276 278 280 281 283 284 285 285 285 286 288 290 291 293 295 297 296 298 300 302 306 310 317 337 353 12 51 76 117 131 130 125 120 116 113 110 106 101 96 94 92 90 84 64 44 45 54 57 57 58 61 68 75 76 75 74 72 71 70 69 68 68 68 68 67 67 67 67 67 67 68 70 72 73
241 241 241 240 241 243 245 246 247 249 250 250 252 253 255 258 260 262 265 267 269 271 273 275 276 278 279 280 281 281 282 283 284 286 286 288 290 292 294 293 295 297 299 302 307 325 348 357 17 39 104 129 134 129 123 119 116 113 110 105 100 95 93 89 84 74 60 55 61 61 61 62 62 65 74 79 80 78 75 73 71 70 69 68 66 65 65 64 64 63 63 64 65 66 69 71 72
242 242 242 242 242 243 244 245 247 248 250 251 252 254 255 258 260 263 265 267 269 270 272 273 275 276 277 277 278 279 280 280 281 282 282 285 287 288 289 289 290 291 293 297 305 335 346 352 9 62 128 134 134 127 123 119 116 114 109 103 99 95 91 87 81 74 69 68 67 66 66 65 66 72 80 84 83 80 77 74 71 69 67 66 65 63 62 62 61 60 59 59 59 61 63 66 67
242 242 241 242 243 244 245 246 247 248 250 252 253 255 256 258 260 262 265 266 268 269 271 273 275 275 276 276 277 277 278 278 277 277 279 282 283 284 283 284 284 282 285 288 305 337 336 353 22 129 135 136 134 127 124 120 118 114 107 102 97 94 91 88 85 81 77 74 70 69 69 69 71 76 83 87 86 82 79 75 71 67 65 63 62 61 60 59 58 57 55 53 52 53 55 57 60
247 245 244 243 243 244 245 246 247 248 249 251 253 255 256 258 260 262 264 265 267 269 272 273 274 274 275 275 276 276 276 275 274 275 276 278 278 276 276 276 273 271 271 273 297 322 328 11 111 140 137 137 134 128 124 120 118 112 105 101 97 95 93 92 89 84 81 78 73 69 69 70 74 80 84 87 87 83 78 73 69 66 63 61 59 58 57 56 55 54 52 50 48 49 49 50 53
257 252 248 245 245 245 245 246 246 247 249 250 252 254 256 258 260 261 263 265 267 269 271 272 273 274 274 275 275 275 274 274 273 273 274 273 271 270 270 265 258 256 251 245 264 290 330 81 144 142 139 138 134 130 124 121 116 110 105 102 99 97 95 93 88 86 84 80 75 70 69 70 75 82 86 86 84 80 75 70 66 63 61 59 57 56 55 55 55 54 53 49 46 46 46 46 47
270 262 253 248 246 246 246 247 247 248 249 249 251 252 255 257 260 262 264 266 268 270 271 272 273 274 274 274 273 273 273 271 270 269 269 267 265 264 261 252 243 239 228 212 211 234 136 137 150 144 142 140 135 129 122 119 114 110 107 104 101 97 94 92 89 88 86 81 75 71 70 70 73 80 85 84 78 73 70 67 64 61 60 59 58 57 55 54 55 57 55 49 44 43 43 44 45
274 274 266 257 251 248 248 249 249 250 250 250 251 252 254 257 260 263 266 268 269 270 271 272 273 274 274 273 272 271 269 269 268 267 264 261 260 257 249 237 229 221 208 192 189 194 146 148 153 147 146 142 134 126 120 115 113 110 108 105 101 97 94 92 90 89 85 80 76 73 72 72 74 78 82 81 74 69 66 64 63 61 61 60 60 59 57 53 53 55 52 46 43 41 39 41 44
269 272 273 273 267 259 254 251 251 252 253 253 253 255 257 259 261 263 264 266 267 269 271 272 273 273 273 272 271 270 269 269 267 263 257 253 251 246 235 223 216 204 195 185 180 178 151 153 156 149 149 142 132 124 118 115 113 111 108 104 99 95 93 91 90 89 85 80 77 74 73 75 77 79 80 79 75 70 66 64 62 62 62 62 61 61 60 56 55 56 52 49 45 42 39 37 41
266 265 264 266 272 273 266 257 255 255 256 257 259 260 260 259 259 259 261 262 265 268 270 272 274 274 273 272 270 268 266 265 258 252 247 243 240 232 220 212 204 192 188 179 174 170 154 156 158 153 149 140 129 122 119 116 113 109 106 102 97 94 93 92 92 91 86 82 78 75 74 75 77 77 76 74 72 69 66 65 63 63 64 64 63 63 61 58 59 56 49 46 44 44 42 35 37
266 264 261 256 254 257 256 253 251 252 253 255 255 256 256 257 259 261 263 266 269 273 276 278 278 277 275 270 264 259 256 254 247 242 237 232 226 217 208 204 194 185 182 174 171 167 156 160 161 155 147 137 127 123 120 117 112 107 103 99 96 96 96 96 96 93 89 85 81 78 76 75 76 75 74 72 69 67 65 65 64 65 65 66 65 64 62 59 60 57 48 47 45 48 50 43 40
264 263 261 254 248 246 245 243 244 246 247 247 247 249 254 259 264 268 272 274 277 280 283 285 284 281 275 266 254 247 247 244 239 234 227 219 214 206 200 196 187 180 177 170 169 165 159 162 163 157 146 134 128 124 121 117 112 107 102 99 98 100 102 102 99 95 91 88 85 81 79 79 78 76 74 71 68 66 64 64 64 65 66 66 65 64 63 62 63 62 60 57 52 52 55 54 50
263 262 258 255 249 245 244 243 245 248 250 250 250 252 258 263 268 273 278 281 283 287 291 291 289 283 273 259 241 237 237 232 230 224 215 208 204 199 195 190 183 178 173 168 167 165 162 163 163 157 145 135 130 126 122 117 112 107 104 102 103 105 106 104 100 96 93 91 87 84 83 81 80 78 75 72 69 67 65 64 63 64 65 66 66 66 65 65 67 67 65 62 56 54 54 54 52
261 261 258 255 251 247 244 243 245 250 255 256 256 258 263 269 274 280 285 289 291 295 298 297 291 281 266 248 229 224 220 213 211 209 204 200 196 194 191 186 183 178 170 166 166 164 166 166 163 156 144 137 132 128 124 119 114 109 107 107 107 108 106 103 99 97 96 94 90 86 85 83 82 79 77 74 71 69 67 65 64 64 64 65 65 66 66 66 67 67 65 62 59 57 55 54 52
257 258 257 255 253 250 246 243 244 250 257 262 265 266 270 274 281 286 291 295 298 301 303 302 292 274 257 238 213 201 198 195 196 197 196 193 191 190 187 183 183 179 170 166 164 164 168 168 164 154 144 139 133 130 126 121 117 112 110 110 110 108 105 101 99 99 98 96 92 89 86 84 81 79 77 75 73 71 69 68 66 66 65 65 64 65 65 65 64 63 62 61 60 58 56 54 52
254 254 256 255 253 251 249 245 244 247 254 262 266 268 271 275 282 288 294 300 303 305 308 305 288 264 244 219 188 180 184 185 188 190 190 188 188 188 186 183 181 179 171 165 163 164 169 170 163 154 146 141 136 132 129 125 120 116 113 112 111 107 103 102 101 100 100 97 94 91 88 85 82 79 77 75 74 72 71 70 68 68 67 66 65 65 65 64 63 62 61 59 57 56 55 54 52
252 253 253 253 252 252 251 248 245 245 249 255 261 265 269 274 281 288 297 304 307 310 313 307 282 247 222 196 171 169 176 180 186 189 189 188 187 186 188 186 179 175 172 166 163 165 170 171 164 155 149 144 138 136 132 128 123 118 116 115 112 107 103 102 101 101 100 97 95 92 89 86 83 81 78 76 74 73 71 71 69 68 67 66 66 65 64 62 61 60 59 57 55 54 54 54 53
249 250 250 250 251 253 252 249 245 242 244 249 255 259 263 268 276 286 298 307 312 315 314 300 266 224 203 184 164 165 175 182 190 190 189 190 189 187 188 187 179 172 173 168 163 166 170 171 165 157 152 146 141 139 135 131 126 122 120 117 113 108 104 102 102 101 100 97 95 93 90 88 85 82 80 77 75 73 71 70 69 67 66 65 64 64 63 62 60 59 58 57 55 54 53 53 52
247 247 248 249 250 251 251 249 247 241 241 245 251 256 259 262 268 280 295 308 315 316 301 273 243 212 198 182 165 165 180 189 193 191 189 192 193 192 189 186 178 169 172 170 164 167 171 170 166 159 154 149 144 142 138 134 129 125 123 120 115 109 106 104 103 102 100 98 96 93 92 90 87 84 81 77 75 73 71 70 68 66 65 64 63 63 62 61 60 59 58 56 55 54 53 52 51
246 247 248 248 250 250 249 249 248 242 239 242 247 252 255 257 261 270 287 303 312 305 279 254 230 210 199 187 171 170 183 194 196 192 190 192 196 197 191 186 177 168 173 173 166 168 172 171 166 160 156 151 147 144 141 137 132 129 127 123 119 113 109 108 106 105 102 100 97 95 93 91 88 84 81 77 75 72 70 69 68 66 64 63 62 61 61 60 60 59 58 56 55 54 53 52 51
244 245 246 246 248 250 249 248 248 244 239 237 241 247 250 253 255 259 272 291 304 299 273 250 228 211 201 191 180 176 185 196 199 196 192 191 197 199 195 189 178 169 174 175 169 170 172 171 166 162 159 154 150 148 145 140 136 133 130 127 123 118 114 111 110 108 105 102 99 97 95 93 89 85 81 77 75 73 70 69 67 65 63 62 61 60 59 59 59 58 57 56 55 53 52 51 50
244 244 245 245 246 249 249 247 247 245 240 235 235 240 245 247 249 250 256 272 293 295 274 250 228 211 201 193 186 182 186 194 198 199 195 192 196 199 197 194 182 170 175 176 171 171 172 170 167 164 161 156 153 151 148 144 139 136 134 131 128 123 119 116 114 112 109 106 103 101 98 95 90 86 82 79 76 73 71 69 67 65 63 61 61 59 58 58 57 56 56 55 55 53 51 49 48
245 245 245 244 245 247 249 248 247 244 241 235 232 235 240 243 244 245 247 251 268 283 273 251 232 214 204 195 190 187 188 193 197 199 200 195 197 199 197 197 187 173 175 176 172 172 172 170 167 165 162 158 156 154 150 146 143 141 138 136 133 128 125 122 120 116 113 110 107 104 101 96 91 87 84 81 78 75 73 70 68 66 63 62 61 59 58 57 56 55 55 55 54 53 51 49 47
244 245 244 243 243 244 246 247 246 243 240 236 232 232 235 239 241 242 244 242 248 269 269 249 233 220 210 201 195 192 190 194 195 197 203 201 201 200 195 196 191 176 174 175 173 173 173 170 168 166 164 162 159 156 153 149 146 144 142 140 137 132 129 127 124 122 118 114 111 108 104 99 93 89 86 84 81 78 76 73 71 68 65 63 61 60 58 57 56 55 54 54 54 53 51 49 47
240 241 241 240 240 240 241 243 244 242 239 235 232 231 232 237 239 239 244 241 238 254 263 247 231 222 216 210 203 198 194 194 194 195 203 204 203 200 192 191 188 178 175 176 174 174 174 172 170 168 166 163 160 158 155 151 149 147 145 143 141 137 134 132 129 127 123 120 116 113 109 104 99 95 91 88 85 82 79 77 74 72 69 66 63 61 59 57 56 54 54 54 53 53 51 49 47
237 238 238 237 236 236 236 238 241 241 237 233 231 232 232 236 238 237 241 242 237 240 251 249 229 217 216 215 210 204 198 195 194 194 201 203 202 197 190 186 185 180 178 176 175 175 173 172 171 169 168 165 162 160 157 154 151 150 149 147 145 141 139 137 135 131 128 125 122 118 114 110 105 100 96 92 90 87 84 81 79 77 74 70 67 64 61 59 56 54 52 51 51 51 50 49 47
234 234 236 236 235 234 233 235 238 239 236 233 233 233 232 235 237 235 237 241 239 236 238 244 232 218 216 216 214 209 203 197 195 194 198 201 199 195 189 185 183 181 179 177 175 175 174 173 172 171 169 167 164 161 159 156 154 153 153 152 150 147 144 142 140 137 134 131 128 124 120 115 110 104 100 96 95 93 91 88 86 84 80 76 72 68 64 60 56 51 48 47 48 49 49 48 47
235 234 237 237 236 236 235 234 237 239 238 235 235 235 233 233 235 234 235 238 240 237 233 236 234 222 219 219 217 213 206 199 197 196 196 198 198 195 192 186 181 179 179 177 176 175 175 176 175 173 171 168 166 163 161 159 157 157 157 156 154 151 148 146 144 143 140 138 134 130 126 121 115 109 103 101 98 98 96 93 91 89 86 81 76 70 64 59 52 47 44 45 46 46 46 46 44
238 236 238 239 237 237 236 236 238 240 240 237 236 237 235 234 235 235 234 235 238 238 232 231 232 222 217 218 219 216 208 200 199 199 196 196 197 195 192 186 180 177 178 179 178 178 179 179 178 175 172 170 169 167 165 164 163 161 160 160 158 155 151 148 148 147 146 145 141 137 130 123 118 110 104 101 98 97 94 90 88 86 86 81 74 66 60 54 47 43 41 42 43 43 41 40 39
240 237 238 239 238 237 236 236 237 239 240 238 237 239 237 234 235 234 233 234 236 238 232 227 229 223 214 215 215 214 209 201 203 204 196 193 194 193 189 183 178 178 180 181 182 181 181 181 180 178 175 173 172 172 172 170 168 166 166 164 163 160 155 151 149 149 150 148 145 140 134 126 117 109 102 98 93 88 82 76 73 68 65 63 60 54 49 45 39 33 32 33 36 36 34 33 31
242 238 238 240 239 236 234 233 234 237 238 238 237 237 236 234 232 230 232 233 233 234 231 226 226 223 215 212 213 213 210 205 208 210 196 188 190 190 186 181 179 180 181 183 184 184 184 184 184 181 179 177 176 177 178 177 175 173 172 171 170 169 164 157 151 148 147 144 140 134 127 120 108 96 90 85 77 67 60 54 49 40 31 28 29 31 31 30 25 21 21 22 25 26 26 25 23
239 237 237 238 237 233 230 228 230 232 235 236 234 232 233 233 228 227 230 231 230 229 230 228 224 223 217 212 213 215 215 213 215 214 198 184 185 187 185 183 181 180 180 183 185 187 189 189 188 185 183 182 182 182 183 183 183 181 181 179 178 178 175 169 161 151 144 137 127 114 106 97 86 71 58 53 48 44 38 32 28 22 15 8 4 6 8 9 9 9 10 11 12 15 17 18 16
238 236 235 235 234 230 226 224 225 227 230 231 230 227 229 231 225 225 229 229 226 226 229 229 222 220 218 212 213 216 219 220 219 216 199 184 182 185 187 187 184 180 180 183 186 190 194 194 193 191 189 189 189 189 190 189 190 191 191 189 188 189 189 188 181 167 156 143 129 105 79 63 55 44 27 17 15 17 17 15 14 11 7 359 353 353 354 355 357 358 0 1 2 5 8 9 9
237 234 234 233 232 229 226 223 222 224 227 230 229 226 229 231 225 224 229 228 224 224 228 227 219 216 217 212 212 215 217 220 219 214 199 186 182 184 188 189 186 183 182 185 188 192 196 196 196 196 196 196 195 195 196 196 197 199 201 201 202 204 205 209 211 206 195 175 159 135 96 49 29 23 12 2 357 356 356 357 2 4 1 356 350 349 350 350 352 353 353 353 355 358 359 359 360
235 232 232 232 231 228 226 224 222 224 227 229 229 226 229 232 226 225 230 227 222 224 227 226 219 213 214 211 211 214 216 217 214 208 200 189 183 184 188 189 188 188 186 188 191 194 198 199 199 199 200 202 202 201 202 203 204 205 208 210 213 216 222 227 232 236 238 236 230 214 193 257 350 352 350 344 343 342 342 343 347 350 350 349 347 346 347 347 347 349 349 349 350 351 351 350 351
231 229 229 230 230 228 226 225 224 225 229 230 228 226 229 232 227 225 230 226 222 225 227 227 222 215 213 210 210 213 214 215 210 205 199 192 186 185 187 188 190 190 190 190 193 196 200 202 202 203 204 207 208 208 208 210 211 211 214 217 218 221 227 233 239 246 252 256 257 254 253 264 286 303 313 317 321 328 332 332 332 333 336 338 339 340 341 341 342 343 345 346 347 347 346 345 345
230 229 230 232 232 231 228 228 227 228 231 231 228 226 229 232 228 225 229 226 222 224 226 227 226 220 214 210 211 212 209 212 212 208 202 194 189 187 187 189 192 194 193 193 195 198 200 201 202 205 207 210 212 213 214 216 218 218 219 222 223 225 230 235 241 249 256 260 261 263 265 269 276 286 291 294 301 310 315 318 320 321 325 328 331 332 334 334 335 336 340 343 343 344 343 342 342
230 229 228 229 230 229 229 229 229 229 231 231 227 225 228 230 227 224 226 224 222 222 222 225 226 224 218 212 212 213 209 210 213 213 208 198 192 190 188 189 193 197 198 198 198 199 200 201 202 205 209 212 214 216 219 221 223 224 224 225 226 229 234 238 243 249 255 259 263 268 271 271 275 279 281 285 291 298 302 307 311 312 315 318 321 324 326 327 328 329 334 337 339 340 340 339 339
227 226 221 223 228 230 231 231 229 228 230 229 225 223 225 227 226 223 223 222 221 221 220 222 224 225 222 217 213 212 211 210 212 214 212 204 197 194 191 191 194 198 201 203 203 203 203 203 205 207 210 213 216 220 223 226 229 230 229 229 229 231 235 239 243 247 251 257 263 268 271 274 275 275 276 282 287 290 296 302 306 308 310 311 313 316 320 322 323 323 328 332 335 336 336 336 336
223 222 220 225 233 233 231 230 227 226 227 227 224 221 222 224 224 222 221 219 219 220 220 221 222 223 224 222 216 212 211 211 211 213 213 208 202 198 196 195 195 198 201 204 207 208 209 210 211 213 215 217 220 223 226 230 232 233 233 233 233 234 236 240 243 247 252 257 261 266 269 272 274 274 276 278 281 284 289 294 298 302 305 306 307 308 313 317 318 319 323 327 330 331 333 334 334
218 220 220 222 227 224 221 222 222 223 227 228 225 223 223 223 223 221 218 217 217 217 218 220 220 220 224 224 218 213 211 210 209 210 211 209 206 203 201 200 200 200 200 203 206 210 213 215 217 219 221 223 225 227 229 232 235 237 238 238 238 238 239 242 246 250 253 257 262 266 269 271 274 276 277 278 279 281 284 287 291 295 299 301 302 304 308 312 314 316 319 323 326 328 329 331 332
217 220 218 216 219 215 210 213 217 223 229 230 228 225 225 224 224 223 219 217 217 217 218 219 218 219 222 223 221 216 213 211 209 208 210 210 208 208 206 206 207 206 205 205 206 209 213 216 220 223 225 227 229 231 233 236 240 242 242 241 240 240 242 245 248 251 254 257 261 265 269 273 275 277 278 279 280 282 283 286 289 292 295 297 299 301 305 309 311 313 317 321 324 325 326 328 330
219 220 217 215 215 208 202 206 211 218 227 230 228 227 226 224 224 224 221 218 217 218 220 220 219 219 221 223 223 220 216 214 211 209 209 209 210 211 211 211 212 212 212 211 211 213 215 217 221 223 225 228 231 233 234 237 241 244 244 243 242 243 245 247 250 253 256 259 262 265 269 273 276 277 278 280 281 281 283 285 288 290 293 295 298 301 303 306 309 312 315 319 321 324 324 325 326
218 217 215 214 212 204 199 200 203 211 223 228 228 228 228 224 223 224 221 217 216 218 220 221 220 220 221 221 222 222 220 217 215 212 210 209 209 212 214 215 216 217 217 218 218 219 220 221 223 224 226 228 230 232 233 236 241 244 244 243 242 243 245 248 251 255 259 262 264 267 270 273 276 278 280 280 281 282 283 285 287 290 292 294 296 299 301 304 307 310 313 315 318 321 323 323 324